DASEW EDDG-EDDG

Flight info

Callsign DASEW
Flight time 0h 13m
Altitude 3000
Route LOCAL IFR
Aircraft B38M/M-V/N

Departure

Time 2026-04-21 01:11
Airport Münster Osnabrück Airport (EDDG)

Arrival

Time 2026-04-21 01:24
Airport Münster Osnabrück Airport (EDDG)
Time Latitude Longitude Altitude Speed Heading
2026-04-21 00:48 52.13180 7.69395 169 ft 0 kts 197°
2026-04-21 01:06 52.13176 7.69389 169 ft 1 kts 223°
2026-04-21 01:06 52.13176 7.69363 169 ft 1 kts 276°
2026-04-21 01:06 52.13179 7.69321 168 ft 6 kts 276°
2026-04-21 01:07 52.13191 7.69273 168 ft 3 kts 324°
2026-04-21 01:07 52.13233 7.69271 168 ft 10 kts
2026-04-21 01:07 52.13308 7.69275 167 ft 12 kts
2026-04-21 01:07 52.13388 7.69245 166 ft 12 kts 338°
2026-04-21 01:08 52.13452 7.69269 167 ft 9 kts 56°
2026-04-21 01:08 52.13475 7.69358 168 ft 10 kts 70°
2026-04-21 01:08 52.13509 7.69518 168 ft 20 kts 71°
2026-04-21 01:08 52.13558 7.69753 167 ft 21 kts 71°
2026-04-21 01:09 52.13592 7.69956 166 ft 16 kts 92°
2026-04-21 01:09 52.13621 7.70060 167 ft 7 kts
2026-04-21 01:09 52.13676 7.70043 166 ft 10 kts 344°
2026-04-21 01:09 52.13753 7.69992 165 ft 8 kts 328°
2026-04-21 01:10 52.13768 7.69932 167 ft 9 kts 267°
2026-04-21 01:10 52.13734 7.69751 170 ft 33 kts 251°
2026-04-21 01:10 52.13586 7.69055 171 ft 96 kts 251°
2026-04-21 01:10 52.13308 7.67743 164 ft 146 kts 253°
2026-04-21 01:11 52.12929 7.66027 367 ft 170 kts 249°
2026-04-21 01:11 52.12451 7.64164 773 ft 182 kts 247°
2026-04-21 01:11 52.11650 7.62646 1161 ft 181 kts 204°
2026-04-21 01:11 52.10424 7.62317 1481 ft 173 kts 174°
2026-04-21 01:12 52.09428 7.63191 1568 ft 160 kts 107°
2026-04-21 01:12 52.09613 7.64878 2154 ft 160 kts 72°
2026-04-21 01:12 52.10008 7.66616 2674 ft 166 kts 72°
2026-04-21 01:12 52.10382 7.68354 3305 ft 139 kts 71°
2026-04-21 01:13 52.10784 7.70008 3306 ft 166 kts 71°
2026-04-21 01:13 52.11152 7.71735 3261 ft 171 kts 76°
2026-04-21 01:13 52.11376 7.73626 3261 ft 171 kts 82°
2026-04-21 01:13 52.11538 7.75553 3256 ft 171 kts 83°
2026-04-21 01:14 52.11563 7.77498 3263 ft 170 kts 96°
2026-04-21 01:14 52.11381 7.79423 3257 ft 171 kts 99°
2026-04-21 01:14 52.11186 7.81343 3259 ft 172 kts 97°
2026-04-21 01:14 52.11042 7.83284 3260 ft 173 kts 96°
2026-04-21 01:15 52.10903 7.85237 3259 ft 174 kts 96°
2026-04-21 01:15 52.10761 7.87248 3274 ft 184 kts 96°
2026-04-21 01:15 52.10609 7.89258 3285 ft 187 kts 96°
2026-04-21 01:15 52.10476 7.91344 3279 ft 188 kts 95°
2026-04-21 01:16 52.10364 7.93431 3267 ft 187 kts 95°
2026-04-21 01:16 52.10238 7.95532 3269 ft 186 kts 95°
2026-04-21 01:16 52.10166 7.97636 3266 ft 186 kts 86°
2026-04-21 01:16 52.10331 7.99675 3253 ft 170 kts 82°
2026-04-21 01:17 52.10513 8.01435 3243 ft 151 kts 81°
2026-04-21 01:17 52.10745 8.03108 3111 ft 153 kts 77°
2026-04-21 01:17 52.11086 8.04703 2816 ft 152 kts 52°
2026-04-21 01:17 52.12072 8.05284 2559 ft 163 kts 352°
2026-04-21 01:18 52.12974 8.04196 2585 ft 170 kts 310°
2026-04-21 01:18 52.13672 8.02644 2580 ft 169 kts 307°
2026-04-21 01:18 52.14357 8.01073 2570 ft 170 kts 307°
2026-04-21 01:18 52.15044 7.99504 2576 ft 171 kts 307°
2026-04-21 01:19 52.15735 7.97921 2573 ft 169 kts 307°
2026-04-21 01:19 52.16357 7.96376 2549 ft 155 kts 300°
2026-04-21 01:19 52.16849 7.94917 2556 ft 144 kts 300°
2026-04-21 01:19 52.17327 7.93488 2570 ft 142 kts 300°
2026-04-21 01:20 52.17806 7.92061 2554 ft 141 kts 300°
2026-04-21 01:20 52.18115 7.90557 2526 ft 141 kts 263°
2026-04-21 01:20 52.17783 7.89052 2552 ft 143 kts 250°
2026-04-21 01:20 52.17486 7.87538 2530 ft 146 kts 249°
2026-04-21 01:21 52.17170 7.86017 2295 ft 140 kts 248°
2026-04-21 01:21 52.16849 7.84510 2122 ft 141 kts 247°
2026-04-21 01:21 52.16512 7.83009 1956 ft 143 kts 248°
2026-04-21 01:21 52.16198 7.81487 1664 ft 140 kts 250°
2026-04-21 01:22 52.15884 7.80008 1426 ft 137 kts 248°
2026-04-21 01:22 52.15557 7.78548 1242 ft 137 kts 250°
2026-04-21 01:22 52.15258 7.77081 1080 ft 137 kts 252°
2026-04-21 01:22 52.14953 7.75606 936 ft 137 kts 251°
2026-04-21 01:23 52.14637 7.74140 726 ft 137 kts 252°
2026-04-21 01:23 52.14341 7.72676 535 ft 138 kts 252°
2026-04-21 01:23 52.14035 7.71206 352 ft 136 kts 254°
2026-04-21 01:23 52.13734 7.69767 207 ft 130 kts 252°
2026-04-21 01:24 52.13486 7.68568 167 ft 86 kts 249°
2026-04-21 01:24 52.13328 7.67837 164 ft 59 kts 251°
2026-04-21 01:24 52.13210 7.67281 163 ft 38 kts 251°
2026-04-21 01:24 52.13139 7.67057 165 ft 14 kts 200°
2026-04-21 01:25 52.13068 7.67081 165 ft 8 kts 146°
2026-04-21 01:25 52.13028 7.67197 165 ft 29 kts 95°
2026-04-21 01:25 52.13145 7.67800 165 ft 80 kts 70°
2026-04-21 01:25 52.13274 7.68407 170 ft 43 kts 71°
2026-04-21 01:26 52.13352 7.68784 168 ft 23 kts 78°
2026-04-21 01:26 52.13293 7.68885 166 ft 9 kts 144°
2026-04-21 01:26 52.13283 7.68970 166 ft 10 kts 97°
2026-04-21 01:26 52.13214 7.69048 168 ft 12 kts 163°
2026-04-21 01:27 52.13162 7.69087 168 ft 3 kts 122°
2026-04-21 01:27 52.13157 7.69101 168 ft 3 kts 120°
2026-04-21 01:27 52.13135 7.69131 168 ft 4 kts 172°
2026-04-21 01:27 52.13116 7.69122 169 ft 0 kts 195°